| time (UTC) | temp F | wind direction | speed knots | gust knots | rain 1hr in | rain 24hr in | rain mn in | humidity % | barometer mb |
| 20260504221015 | 79 | 344 | 6.1 | 7.0 | 0.00 | 0.00 | 0.00 | 27 | 1000.7 |
| 20260504220512 | 80 | 41 | 1.7 | 8.7 | 0.00 | 0.00 | 0.00 | 28 | 1000.6 |
| 20260504220009 | 80 | 357 | 0.0 | 5.2 | 0.00 | 0.00 | 0.00 | 28 | 1000.6 |
| 20260504215505 | 80 | 348 | 3.5 | 7.0 | 0.00 | 0.00 | 0.00 | 28 | 1000.5 |
| 20260504215003 | 80 | 0 | 5.2 | 8.7 | 0.00 | 0.00 | 0.00 | 27 | 1000.5 |
| 20260504214458 | 81 | 24 | 5.2 | 7.0 | 0.00 | 0.00 | 0.00 | 26 | 1000.5 |
| 20260504213955 | 83 | 351 | 7.8 | 11.3 | 0.00 | 0.00 | 0.00 | 27 | 1000.5 |
| 20260504213451 | 82 | 21 | 6.1 | 9.6 | 0.00 | 0.00 | 0.00 | 25 | 1000.5 |
| 20260504212949 | 82 | 45 | 3.5 | 6.1 | 0.00 | 0.00 | 0.00 | 25 | 1000.4 |
| 20260504212444 | 82 | 44 | 2.6 | 5.2 | 0.00 | 0.00 | 0.00 | 25 | 1000.4 |
| 20260504211942 | 82 | 82 | 1.7 | 4.3 | 0.00 | 0.00 | 0.00 | 25 | 1000.3 |
| 20260504211438 | 83 | 83 | 0.9 | 7.0 | 0.00 | 0.00 | 0.00 | 21 | 1000.4 |
| 20260504210936 | 81 | 124 | 0.0 | 1.7 | 0.00 | 0.00 | 0.00 | 23 | 1000.4 |
| 20260504210433 | 82 | 59 | 0.0 | 5.2 | 0.00 | 0.00 | 0.00 | 22 | 1000.5 |
| 20260504205930 | 80 | 92 | 0.0 | 2.6 | 0.00 | 0.00 | 0.00 | 20 | 1000.5 |
| 20260504205427 | 81 | 52 | 0.0 | 4.3 | 0.00 | 0.00 | 0.00 | 22 | 1000.4 |
| 20260504204925 | 82 | 331 | 6.1 | 7.0 | 0.00 | 0.00 | 0.00 | 21 | 1000.6 |
| 20260504204423 | 81 | 72 | 0.9 | 2.6 | 0.00 | 0.00 | 0.00 | 22 | 1000.6 |
| 20260504203922 | 81 | 112 | 0.9 | 2.6 | 0.00 | 0.00 | 0.00 | 21 | 1000.6 |
| 20260504203420 | 83 | 91 | 2.6 | 8.7 | 0.00 | 0.00 | 0.00 | 20 | 1000.7 |
| 20260504202915 | 81 | 60 | 4.3 | 5.2 | 0.00 | 0.00 | 0.00 | 22 | 1000.8 |
| 20260504202412 | 79 | 56 | 0.0 | 1.7 | 0.00 | 0.00 | 0.00 | 21 | 1000.8 |
| 20260504201909 | 83 | 23 | 3.5 | 7.0 | 0.00 | 0.00 | 0.00 | 21 | 1001.0 |
| 20260504201406 | 82 | 52 | 3.5 | 5.2 | 0.00 | 0.00 | 0.00 | 20 | 1000.9 |
| 20260504200903 | 82 | 347 | 5.2 | 7.8 | 0.00 | 0.00 | 0.00 | 21 | 1000.9 |
| 20260504200400 | 81 | 46 | 0.9 | 5.2 | 0.00 | 0.00 | 0.00 | 21 | 1000.9 |
| 20260504195857 | 82 | 4 | 9.6 | 11.3 | 0.00 | 0.00 | 0.00 | 20 | 1000.8 |
| 20260504195352 | 82 | 64 | 1.7 | 9.6 | 0.00 | 0.00 | 0.00 | 22 | 1001.3 |
| 20260504194849 | 82 | 36 | 3.5 | 7.0 | 0.00 | 0.00 | 0.00 | 21 | 1001.1 |
| 20260504194345 | 83 | 1 | 6.1 | 8.7 | 0.00 | 0.00 | 0.00 | 19 | 1001.0 |
| 20260504193841 | 80 | 90 | 0.0 | 1.7 | 0.00 | 0.00 | 0.00 | 24 | 1001.1 |
| 20260504193338 | 82 | 322 | 4.3 | 7.0 | 0.00 | 0.00 | 0.00 | 22 | 1001.2 |
| 20260504192837 | 81 | 77 | 0.0 | 6.1 | 0.00 | 0.00 | 0.00 | 23 | 1001.2 |
| 20260504192335 | 80 | 21 | 1.7 | 2.6 | 0.00 | 0.00 | 0.00 | 24 | 1001.1 |
| 20260504191833 | 80 | 43 | 1.7 | 2.6 | 0.00 | 0.00 | 0.00 | 24 | 1001.3 |
| 20260504191330 | 80 | 15 | 4.3 | 6.1 | 0.00 | 0.00 | 0.00 | 23 | 1001.3 |
| 20260504190826 | 81 | 99 | 2.6 | 11.3 | 0.00 | 0.00 | 0.00 | 22 | 1001.4 |
| 20260504190322 | 81 | 32 | 3.5 | 7.8 | 0.00 | 0.00 | 0.00 | 23 | 1001.4 |
| 20260504185819 | 81 | 327 | 5.2 | 7.8 | 0.00 | 0.00 | 0.00 | 23 | 1001.3 |
| 20260504185316 | 80 | 99 | 0.9 | 4.3 | 0.00 | 0.00 | 0.00 | 24 | 1001.2 |
| 20260504184812 | 81 | 26 | 4.3 | 7.0 | 0.00 | 0.00 | 0.00 | 23 | 1001.2 |
| 20260504184308 | 80 | 55 | 0.0 | 0.0 | 0.00 | 0.00 | 0.00 | 25 | 1001.3 |
| 20260504183803 | 81 | 25 | 10.4 | 13.9 | 0.00 | 0.00 | 0.00 | 22 | 1001.4 |
| 20260504183301 | 79 | 348 | 2.6 | 7.0 | 0.00 | 0.00 | 0.00 | 23 | 1001.4 |
| 20260504182759 | 81 | 346 | 3.5 | 6.1 | 0.00 | 0.00 | 0.00 | 24 | 1001.4 |
| 20260504182255 | 80 | 94 | 0.0 | 0.0 | 0.00 | 0.00 | 0.00 | 26 | 1001.5 |
| 20260504181753 | 80 | 322 | 2.6 | 5.2 | 0.00 | 0.00 | 0.00 | 23 | 1001.4 |
| 20260504181250 | 79 | 51 | 0.9 | 4.3 | 0.00 | 0.00 | 0.00 | 25 | 1001.4 |
| 20260504180749 | 79 | 66 | 3.5 | 8.7 | 0.00 | 0.00 | 0.00 | 24 | 1001.4 |
| 20260504180248 | 79 | 352 | 5.2 | 11.3 | 0.00 | 0.00 | 0.00 | 22 | 1001.5 |
| 20260504175745 | 79 | 15 | 4.3 | 7.8 | 0.00 | 0.00 | 0.00 | 22 | 1001.7 |
| 20260504175241 | 79 | 19 | 1.7 | 2.6 | 0.00 | 0.00 | 0.00 | 25 | 1001.6 |
| 20260504174739 | 80 | 91 | 2.6 | 2.6 | 0.00 | 0.00 | 0.00 | 22 | 1001.6 |
| 20260504174237 | 79 | 35 | 4.3 | 6.1 | 0.00 | 0.00 | 0.00 | 24 | 1001.5 |
| 20260504173733 | 79 | 56 | 3.5 | 6.1 | 0.00 | 0.00 | 0.00 | 25 | 1001.6 |
| 20260504173230 | 78 | 62 | 0.0 | 0.0 | 0.00 | 0.00 | 0.00 | 27 | 1001.6 |
| 20260504172727 | 78 | 88 | 0.0 | 0.0 | 0.00 | 0.00 | 0.00 | 29 | 1001.9 |
| 20260504172224 | 77 | 87 | 1.7 | 2.6 | 0.00 | 0.00 | 0.00 | 26 | 1002.0 |
| 20260504171720 | 78 | 65 | 1.7 | 2.6 | 0.00 | 0.00 | 0.00 | 26 | 1002.1 |
| 20260504171217 | 77 | 26 | 1.7 | 2.6 | 0.00 | 0.00 | 0.00 | 28 | 1002.0 |
| 20260504170714 | 77 | 68 | 1.7 | 7.0 | 0.00 | 0.00 | 0.00 | 29 | 1002.1 |
| 20260504170211 | 77 | 78 | 1.7 | 11.3 | 0.00 | 0.00 | 0.00 | 29 | 1002.4 |
| 20260504160129 | 72 | 63 | 1.7 | 6.1 | 0.00 | 0.00 | 0.00 | 40 | 1002.3 |
| 20260504151057 | 67 | 45 | 1.7 | 4.3 | 0.00 | 0.00 | 0.00 | 46 | 1002.8 |
| 20260504150554 | 67 | 70 | 0.9 | 4.3 | 0.00 | 0.00 | 0.00 | 46 | 1002.7 |
| 20260504141020 | 62 | 255 | 3.5 | 4.3 | 0.00 | 0.00 | 0.00 | 57 | 1002.5 |
| 20260504140517 | 62 | 334 | 2.6 | 4.3 | 0.00 | 0.00 | 0.00 | 59 | 1002.6 |
| 20260504130441 | 54 | 89 | 0.0 | 0.0 | 0.00 | 0.00 | 0.00 | 69 | 1002.3 |
| 20260504110328 | 47 | 92 | 0.0 | 0.0 | 0.00 | 0.00 | 0.00 | 84 | 1001.9 |
| 20260504100246 | 48 | 93 | 0.0 | 0.0 | 0.00 | 0.00 | 0.00 | 79 | 1002.1 |
| 20260504081639 | 51 | 92 | 0.0 | 0.0 | 0.00 | 0.00 | 0.00 | 75 | 1003.2 |
| 20260504081135 | 51 | 92 | 0.0 | 0.0 | 0.00 | 0.00 | 0.00 | 75 | 1003.4 |
| 20260504080632 | 51 | 92 | 0.0 | 0.0 | 0.00 | 0.00 | 0.00 | 76 | 1003.5 |
| 20260504080128 | 51 | 92 | 0.0 | 0.0 | 0.00 | 0.00 | 0.00 | 76 | 1003.7 |
| 20260504050445 | 60 | 95 | 0.0 | 0.0 | 0.00 | 0.00 | 0.00 | 51 | 1006.0 |
| 20260504045942 | 60 | 95 | 0.0 | 0.0 | 0.00 | 0.00 | 0.00 | 51 | 1005.9 |
| 20260504045437 | 60 | 95 | 0.0 | 0.0 | 0.00 | 0.00 | 0.00 | 51 | 1005.9 |
| 20260504044934 | 58 | 108 | 0.0 | 0.0 | 0.00 | 0.00 | 0.00 | 58 | 1006.2 |
| 20260504044431 | 58 | 97 | 0.0 | 0.0 | 0.00 | 0.00 | 0.00 | 61 | 1006.2 |
| 20260504043929 | 59 | 93 | 0.0 | 0.0 | 0.00 | 0.00 | 0.00 | 59 | 1006.3 |
| 20260504043425 | 59 | 94 | 0.0 | 0.0 | 0.00 | 0.00 | 0.00 | 55 | 1006.4 |
| 20260504042917 | 59 | 94 | 0.0 | 0.0 | 0.00 | 0.00 | 0.00 | 55 | 1006.4 |
| 20260504042414 | 59 | 94 | 0.0 | 0.0 | 0.00 | 0.00 | 0.00 | 55 | 1006.5 |
| 20260504041910 | 59 | 94 | 0.0 | 0.0 | 0.00 | 0.00 | 0.00 | 55 | 1006.5 |
| 20260504041406 | 59 | 94 | 0.0 | 0.0 | 0.00 | 0.00 | 0.00 | 55 | 1006.5 |
| 20260504040903 | 60 | 94 | 0.0 | 0.0 | 0.00 | 0.00 | 0.00 | 52 | 1006.4 |
| 20260504040400 | 60 | 94 | 0.0 | 0.0 | 0.00 | 0.00 | 0.00 | 52 | 1006.6 |
| 20260504035856 | 63 | 91 | 0.0 | 0.0 | 0.00 | 0.00 | 0.00 | 48 | 1006.6 |
| 20260504035354 | 63 | 91 | 0.0 | 0.0 | 0.00 | 0.00 | 0.00 | 48 | 1006.7 |
| 20260504034850 | 63 | 91 | 0.0 | 0.0 | 0.00 | 0.00 | 0.00 | 48 | 1006.9 |
| 20260504034348 | 63 | 91 | 0.0 | 0.0 | 0.00 | 0.00 | 0.00 | 48 | 1006.9 |
| 20260504033844 | 63 | 91 | 0.0 | 0.0 | 0.00 | 0.00 | 0.00 | 48 | 1006.8 |
| 20260504033343 | 61 | 110 | 0.9 | 1.7 | 0.00 | 0.00 | 0.00 | 48 | 1007.2 |
| 20260504032839 | 60 | 94 | 0.0 | 0.0 | 0.00 | 0.00 | 0.00 | 53 | 1007.2 |
| 20260504032336 | 60 | 92 | 0.0 | 0.0 | 0.00 | 0.00 | 0.00 | 57 | 1007.2 |
| 20260504031833 | 61 | 91 | 0.0 | 0.0 | 0.00 | 0.00 | 0.00 | 56 | 1007.1 |
| 20260504031330 | 62 | 95 | 0.0 | 0.0 | 0.00 | 0.00 | 0.00 | 51 | 1007.4 |
| 20260504030826 | 63 | 95 | 0.0 | 0.0 | 0.00 | 0.00 | 0.00 | 50 | 1007.5 |
| 20260504030324 | 63 | 102 | 0.0 | 0.0 | 0.00 | 0.00 | 0.00 | 49 | 1007.7 |
| 20260504025820 | 62 | 118 | 0.0 | 0.0 | 0.00 | 0.00 | 0.00 | 50 | 1007.5 |
| 20260504025317 | 62 | 95 | 0.0 | 0.0 | 0.00 | 0.00 | 0.00 | 51 | 1007.2 |
| 20260504024814 | 62 | 95 | 0.0 | 0.0 | 0.00 | 0.00 | 0.00 | 49 | 1007.3 |
| 20260504024310 | 63 | 95 | 0.0 | 0.0 | 0.00 | 0.00 | 0.00 | 49 | 1007.1 |
| 20260504023807 | 64 | 95 | 0.0 | 0.0 | 0.00 | 0.00 | 0.00 | 47 | 1007.2 |
| 20260504023303 | 64 | 105 | 0.0 | 0.0 | 0.00 | 0.00 | 0.00 | 47 | 1007.4 |
| 20260504022759 | 64 | 105 | 0.0 | 0.0 | 0.00 | 0.00 | 0.00 | 47 | 1007.1 |
| 20260504022256 | 64 | 90 | 0.0 | 0.0 | 0.00 | 0.00 | 0.00 | 47 | 1007.2 |
| 20260504021753 | 64 | 92 | 0.0 | 0.0 | 0.00 | 0.00 | 0.00 | 45 | 1007.0 |
| 20260504021250 | 64 | 94 | 0.0 | 0.0 | 0.00 | 0.00 | 0.00 | 44 | 1006.9 |
| 20260504020747 | 65 | 94 | 0.0 | 0.0 | 0.00 | 0.00 | 0.00 | 44 | 1006.9 |
| 20260504020243 | 65 | 94 | 0.0 | 0.0 | 0.00 | 0.00 | 0.00 | 44 | 1007.0 |
| 20260504015739 | 66 | 94 | 0.0 | 0.0 | 0.00 | 0.00 | 0.00 | 42 | 1006.9 |
| 20260504015236 | 67 | 94 | 0.0 | 0.0 | 0.00 | 0.00 | 0.00 | 41 | 1007.1 |
| 20260504014732 | 67 | 95 | 0.0 | 0.0 | 0.00 | 0.00 | 0.00 | 41 | 1006.9 |
| 20260504014229 | 68 | 95 | 0.0 | 0.0 | 0.00 | 0.00 | 0.00 | 40 | 1007.1 |
| 20260504013727 | 67 | 99 | 0.0 | 0.0 | 0.00 | 0.00 | 0.00 | 40 | 1006.9 |
| 20260504013224 | 68 | 93 | 0.0 | 0.0 | 0.00 | 0.00 | 0.00 | 40 | 1007.0 |
| 20260504012720 | 69 | 93 | 0.0 | 0.0 | 0.00 | 0.00 | 0.00 | 39 | 1007.0 |
| 20260504012219 | 70 | 96 | 0.0 | 0.0 | 0.00 | 0.00 | 0.00 | 37 | 1006.9 |
| 20260504011715 | 70 | 96 | 0.0 | 0.0 | 0.00 | 0.00 | 0.00 | 37 | 1006.9 |
| 20260504011212 | 70 | 96 | 0.0 | 0.0 | 0.00 | 0.00 | 0.00 | 37 | 1007.0 |
| 20260504010708 | 70 | 94 | 0.0 | 0.0 | 0.00 | 0.00 | 0.00 | 36 | 1007.0 |
| 20260504010203 | 70 | 93 | 0.0 | 0.0 | 0.00 | 0.00 | 0.00 | 35 | 1007.1 |
| 20260504005700 | 71 | 92 | 0.0 | 0.0 | 0.00 | 0.00 | 0.00 | 35 | 1007.0 |
| 20260504005157 | 71 | 93 | 0.0 | 0.0 | 0.00 | 0.00 | 0.00 | 35 | 1007.0 |
| 20260504004655 | 71 | 92 | 0.0 | 0.0 | 0.00 | 0.00 | 0.00 | 34 | 1006.9 |
| 20260504004152 | 72 | 88 | 0.0 | 0.0 | 0.00 | 0.00 | 0.00 | 34 | 1007.0 |
| 20260504003648 | 72 | 94 | 0.0 | 0.0 | 0.00 | 0.00 | 0.00 | 34 | 1007.1 |
| 20260504003145 | 72 | 91 | 0.0 | 0.0 | 0.00 | 0.00 | 0.00 | 33 | 1007.1 |
| 20260504002642 | 73 | 83 | 0.0 | 0.0 | 0.00 | 0.00 | 0.00 | 33 | 1007.1 |
| 20260504002139 | 73 | 95 | 0.0 | 0.0 | 0.00 | 0.00 | 0.00 | 33 | 1007.3 |
| 20260504001637 | 73 | 52 | 0.0 | 0.9 | 0.00 | 0.00 | 0.00 | 32 | 1007.3 |
| 20260504001133 | 73 | 82 | 0.0 | 1.7 | 0.00 | 0.00 | 0.00 | 32 | 1007.2 |
| 20260504000630 | 73 | 86 | 0.0 | 0.0 | 0.00 | 0.00 | 0.00 | 32 | 1007.1 |
| 20260504000128 | 74 | 100 | 0.0 | 0.0 | 0.00 | 0.00 | 0.00 | 32 | 1007.3 |
| 20260503235626 | 74 | 91 | 0.0 | 0.0 | 0.00 | 0.00 | 0.00 | 30 | 1007.4 |
| 20260503235122 | 75 | 88 | 0.0 | 0.0 | 0.00 | 0.00 | 0.00 | 29 | 1007.2 |
| 20260503234620 | 75 | 85 | 0.0 | 0.0 | 0.00 | 0.00 | 0.00 | 31 | 1007.8 |
| 20260503234118 | 75 | 91 | 0.0 | 0.0 | 0.00 | 0.00 | 0.00 | 32 | 1007.7 |
| 20260503233615 | 75 | 76 | 1.7 | 2.6 | 0.00 | 0.00 | 0.00 | 30 | 1007.8 |
| 20260503233110 | 75 | 89 | 0.0 | 0.9 | 0.00 | 0.00 | 0.00 | 31 | 1007.8 |
| 20260503232608 | 75 | 91 | 0.0 | 0.0 | 0.00 | 0.00 | 0.00 | 33 | 1007.7 |
| 20260503232105 | 75 | 86 | 0.0 | 0.0 | 0.00 | 0.00 | 0.00 | 29 | 1007.8 |
| 20260503231603 | 76 | 87 | 0.0 | 0.0 | 0.00 | 0.00 | 0.00 | 30 | 1007.7 |
| 20260503231059 | 76 | 96 | 0.0 | 0.0 | 0.00 | 0.00 | 0.00 | 27 | 1007.9 |
| 20260503230556 | 76 | 93 | 0.0 | 0.0 | 0.00 | 0.00 | 0.00 | 28 | 1007.9 |
| 20260503230053 | 75 | 73 | 0.0 | 0.0 | 0.00 | 0.00 | 0.00 | 28 | 1008.3 |
| 20260503225550 | 75 | 93 | 0.0 | 0.0 | 0.00 | 0.00 | 0.00 | 28 | 1007.9 |
| 20260503225045 | 75 | 65 | 0.9 | 1.7 | 0.00 | 0.00 | 0.00 | 27 | 1008.0 |
| 20260503224543 | 75 | 105 | 0.0 | 2.6 | 0.00 | 0.00 | 0.00 | 26 | 1007.9 |
| 20260503224040 | 75 | 161 | 2.6 | 4.3 | 0.00 | 0.00 | 0.00 | 26 | 1008.1 |
| 20260503223539 | 75 | 109 | 0.0 | 2.6 | 0.00 | 0.00 | 0.00 | 26 | 1008.2 |
| 20260503223033 | 77 | 101 | 0.9 | 1.7 | 0.00 | 0.00 | 0.00 | 28 | 1008.1 |
| 20260503222532 | 75 | 84 | 0.0 | 0.0 | 0.00 | 0.00 | 0.00 | 26 | 1008.2 |
| 20260503222030 | 74 | 95 | 0.0 | 0.0 | 0.00 | 0.00 | 0.00 | 27 | 1008.2 |
| 20260503221528 | 75 | 89 | 0.0 | 0.0 | 0.00 | 0.00 | 0.00 | 25 | 1008.1 |